Location: Gowrie
(35.4119°S, 149.1090°E)
Time: 04:44:26
(UTC+10:00)

ISS - Visible Passes

Search period start: 20 August 2017 00:00
Search period end: 30 August 2017 00:00
Orbit: 401 x 408 km, 51.6° (Epoch: 20 August)

Date Brightness Start Highest point End Pass type
(mag) Time Alt. Az. Time Alt. Az. Time Alt. Az.
20 Aug -3.8 05:30:45 29° WSW 05:32:16 62° NW 05:35:33 10° NE visible
21 Aug -2.3 04:41:08 36° ENE 04:41:08 36° ENE 04:43:20 10° ENE visible
22 Aug -2.3 05:24:20 22° NW 05:24:20 22° NW 05:26:42 10° N visible
23 Aug -0.8 04:34:57 11° NNE 04:34:57 11° NNE 04:35:07 10° NNE visible
25 Aug -2.5 19:21:33 10° NW 19:23:32 33° NNW 19:23:32 33° NNW visible
26 Aug -2.7 18:29:43 10° NNW 18:32:36 28° NE 18:34:07 20° E visible
26 Aug -0.5 20:06:16 10° W 20:06:49 13° W 20:06:49 13° W visible
27 Aug -2.9 19:13:26 10° WNW 19:16:38 45° SW 19:17:15 39° S visible
28 Aug -3.9 18:20:59 10° NW 18:24:17 84° NE 18:27:34 10° SE visible
28 Aug -0.6 19:59:23 10° WSW 20:00:15 12° SW 20:00:15 12° SW visible
29 Aug -1.5 19:05:57 10° W 19:08:34 21° SSW 19:10:26 14° S visible
